Location: Armidale
(30.5016°S, 151.6662°E)
Time: 06:03:37
(UTC+10:00)

OTV 5 (USA 277) - Visible Passes

Search period start: 22 August 2019 00:00
Search period end: 01 September 2019 00:00
Orbit: 305 x 329 km, 54.5° (Epoch: 20 August)

Date Brightness Start Highest point End Pass type
(mag) Time Alt. Az. Time Alt. Az. Time Alt. Az.
28 Aug ? 05:17:58 10° N 05:20:12 24° NE 05:22:29 10° ESE visible
29 Aug ? 05:31:58 10° NW 05:34:39 78° SW 05:37:24 10° SE visible
30 Aug ? 04:15:35 12° ENE 04:15:35 12° ENE 04:16:28 10° E visible
30 Aug ? 05:47:07 10° W 05:49:16 21° SW 05:51:28 10° S visible
31 Aug ? 04:30:38 27° ESE 04:30:38 27° ESE 04:32:10 10° SE visible
